Weather History for Osoyoos, BC

Change the Weather History Date:

Tuesday, October 29, 2013

  Actual Average Record
Temperature  
Mean Temperature 41 °F -  
Max Temperature 52 °F - - ()
Min Temperature 30 °F - - ()
Degree Days  
Heating Degree Days 24    
Moisture  
Dew Point 29 °F    
Average Humidity 61    
Maximum Humidity 95    
Minimum Humidity 34    
Precipitation  
Precipitation 0.00 in - - ()
Sea Level Pressure  
Sea Level Pressure 30.02 in    
Wind  
Wind Speed 4 mph ()    
Max Wind Speed 10 mph    
Max Gust Speed 20 mph    
T = Trace of Precipitation, MM = Missing Value Source: Averaged Metar Reports

Daily Weather History Graph

Daily Weather History Graph

Search for Another Location

Airport:

Trip Planner

Search our weather history database for the weather conditions in past years. The results will help you decide how hot, cold, wet, or windy it might be!

Date:

Astronomy

Oct. 29, 2013 Rise Set
Actual Time 7:40 AM PDT 5:41 PM PDT
Civil Twilight 7:07 AM PDT 6:14 PM PDT
Nautical Twilight 6:30 AM PDT 6:51 PM PDT
Astronomical Twilight 5:53 AM PDT 7:28 PM PDT
Moon 2:10 AM PDT (10/29) 3:19 PM PDT (10/29)
Length of Visible Light 11h 06m
Length of Day
10h 00m
Waning Crescent, 24% of the Moon is Illuminated
Oct 29
Waning Crescent
Nov 3
New
Nov 9
First Quarter
Nov 17
Full
Nov 25
Last Quarter

Hourly Weather History & Observations

Time (PDT) Temp. Windchill Dew Point Humidity Pressure Visibility Wind Dir Wind Speed Gust Speed Precip Events Conditions
12:00 AM 46.4 °F 41.9 °F 29.1 °F 51% 30.02 in - NW 9.2 mph 19.6 mph N/A   Unknown
1:00 AM 45.3 °F 40.1 °F 29.3 °F 54% 30.02 in - WNW 10.4 mph 18.4 mph N/A   Unknown
2:00 AM 44.8 °F 40.4 °F 29.5 °F 55% 30.02 in - NW 8.1 mph - N/A   Unknown
3:00 AM 44.1 °F 40.8 °F 28.2 °F 54% 30.03 in - NW 5.8 mph - N/A   Unknown
4:00 AM 43.3 °F 39.2 °F 30.4 °F 60% 30.02 in - NNW 6.9 mph - N/A   Unknown
5:00 AM 41 °F - 28 °F 48% 30.04 in - NNE 5.8 mph - -  
5:00 AM 40.6 °F 36.7 °F 27.9 °F 60% 30.04 in - NNE 5.8 mph - N/A   Unknown
6:00 AM 38.8 °F - 27.3 °F 63% 30.04 in - ESE 2.3 mph - N/A   Unknown
7:00 AM 38.7 °F - 27.5 °F 64% 30.05 in - East 2.3 mph - N/A   Unknown
8:00 AM 35.2 °F - 27.5 °F 73% 30.05 in - ENE 2.3 mph - N/A   Unknown
9:00 AM 39.7 °F - 29.7 °F 67% 30.06 in - ENE 1.2 mph - N/A   Unknown
10:00 AM 42.8 °F 39.3 °F 29.3 °F 59% 30.06 in - NNW 5.8 mph - N/A   Unknown
11:00 AM 44 °F - 28 °F 42% 30.06 in - ENE 1.2 mph - -  
11:00 AM 44.1 °F - 28.4 °F 54% 30.06 in - ENE 1.2 mph - N/A   Unknown
12:00 PM 46.2 °F - 28.9 °F 51% 30.04 in - NNW 2.3 mph - N/A   Unknown
1:00 PM 48.2 °F - 27.7 °F 45% 30.01 in - SW 2.3 mph - N/A   Unknown
2:00 PM 50.4 °F - 27.3 °F 41% 29.99 in - WNW 2.3 mph - N/A   Unknown
3:00 PM 51.8 °F - 27.1 °F 39% 29.97 in - WSW 2.3 mph - N/A   Unknown
4:00 PM 52.3 °F - 27.9 °F 39% 29.98 in - SW 2.3 mph - N/A   Unknown
5:00 PM 51 °F - 31 °F 34% 29.97 in - SW 2.3 mph - -  
5:00 PM 50.9 °F - 31.1 °F 47% 29.97 in - SW 2.3 mph - N/A   Unknown
6:00 PM 41.2 °F - 31.6 °F 69% 29.98 in - ESE 1.2 mph - N/A   Unknown
7:00 PM 36.0 °F - 30.9 °F 82% 30.00 in - NE 2.3 mph - N/A   Unknown
8:00 PM 33.8 °F - 31.5 °F 91% 30.01 in - NE 2.3 mph - N/A   Unknown
9:00 PM 31.5 °F - 30.2 °F 95% 30.01 in - East 1.2 mph - N/A   Unknown
10:00 PM 31.3 °F - 28.9 °F 91% 30.02 in - ENE 1.2 mph - N/A   Unknown
11:00 PM 30 °F - 28 °F 89% 30.03 in - East 1.2 mph - -  
11:00 PM 30.0 °F - 28.0 °F 92% 30.03 in - East 1.2 mph - N/A   Unknown